{"data":{"norad_id":63027,"intl_designator":"2025-033B","name":"GLOBAL-31","alt_names":[],"object_type":"PAYLOAD","status":"ACTIVE","operator":null,"country":"US","launch_date":"2025-02-18","launch_site_code":"RLLB","launch_vehicle":null,"mission":null,"orbit_class":"UNKNOWN","rcs_meters":null,"size_class":null,"mass_kg":null,"dimensions":null,"purposes":[],"wikipedia_slug":null,"has_3d_model":false,"image_url":null,"decayed_at":null,"tle_current":{"epoch":"2026-05-25T02:49:16.530816Z","epoch_age_seconds":68913,"freshness":"FRESH","line1":"1 63027U 25033B   26145.11755244  .00013185  00000+0  34588-3 0  9996","line2":"2 63027  59.0000  49.3978 0014291  54.6532 305.5878 15.38942201 70778","mean_motion":15.38942201,"eccentricity":0.0014291,"inclination_deg":59,"raan_deg":49.3978,"arg_perigee_deg":54.6532,"mean_anomaly_deg":305.5878,"bstar":0.00034588,"rev_number":7077,"period_min":93.570765624875,"perigee_km":439.4790790462,"apogee_km":458.99307677749,"semimajor_km":6827.3730779118,"source":"CELESTRAK","updated_at":"2026-05-25T13:38:03.434408Z"}}}